Location: Boiro
(42.6475°N, 8.8834°W)
Time: 18:49:20
(UTC+01:00)

Explorer 7 - Pass Details

Date: 05 December 2021
Orbit: 483 x 674 km, 50.3° (Epoch: 26 January)

Event Time Altitude Azimuth Distance (km) Brightness Sun altitude
Rises 07:55:08 0° 258° (WSW) 2,827 - -9.9°
Exits shadow 07:57:27 10° 265° (W) 1,931 9.1 -9.5°
Reaches altitude 10° 07:57:33 10° 265° (W) 1,892 9.0 -9.5°
Maximum altitude 08:01:42 45° 339° (NNW) 765 7.3 -8.8°
Drops below altitude 10° 08:05:36 10° 53° (NE) 1,784 9.8 -8.2°
Sets 08:07:50 0° 60° (ENE) 2,645 10.9 -7.8°
